Starlink 11307

operational
NORAD ID: 61210 Int'l Des: 2024-171 Owner: SPXS Country: US Constellation: starlink
LEOCIRCULAR

Über Starlink 11307

Beschreibung wird geladen...

Live-Position

3D-Globus wird geladen...

Nächste Überflüge

Höhenverlauf

Altitude vs Time

uPlot chart will show altitude changes over time

Zweizeiliger Elementsatz

1 61210U 24171L 26034.56169865 -.00000573 00000-0 12966-6 0 9992
2 61210 53.1611 344.8557 0001361 86.2349 273.8824 15.69705139 79037
Epoch: 3. Feb. 2026 • Age: 16 hours

Aktueller Status

Höhe 379.1 km
Geschwindigkeit 7.68 km/s
Subsatellitenpunkt -53.11°S, 21.79°E
Startdatum 20. Sept. 2024
Alter 1.3 years
Typ internet

Technische Details

Klassifizierung Payload
Masse 960.00 kg
Trockenmasse 910.00 kg
Gesamtmasse 960.00 kg
Länge 0.30 m
Durchmesser 4.10 m
Spannweite 29.00 m
Form Box + pan
Hersteller SPXS
Bus-Typ Starlink V2MD
Phasenstatus In Orbit
Besitzer/Staat SPXS/US

Große Konstellationen

Loading constellations...